FW0750 Weather Reports


time (UTC)temp
C
wind
direction
speed
KPH
gust
KPH
rain 1hr
cm
rain 24hr
cm
rain mn
cm
humidity
%
barometer
mb
20200229105016 10 0.0 0.0 0.00 0.03 0.00 95 1012.9
20200229104016 10 0.0 0.0 0.00 0.03 0.00 95 1012.9
20200229103016 10 0.0 0.0 0.00 0.03 0.00 95 1013.0
20200229102016 10 0.0 0.0 0.00 0.03 0.00 94 1013.0
20200229101015 10 0.0 0.0 0.00 0.03 0.00 94 1013.3
20200229100016 10 0.0 0.0 0.00 0.03 0.00 94 1013.5
20200229095016 10 0.0 0.0 0.00 0.03 0.00 94 1013.5
20200229094015 10 0.0 0.0 0.00 0.03 0.00 93 1013.5
20200229093015 10 0.0 0.0 0.00 0.03 0.00 93 1013.7
20200229092015 11 0.0 0.0 0.00 0.03 0.00 93 1014.0
20200229091016 11 0.0 1.6 0.00 0.03 0.00 93 1014.1
20200229090015 11 0.0 0.0 0.00 0.03 0.00 93 1014.4
20200229085016 11 0.0 0.0 0.00 0.03 0.00 93 1014.5
20200229084018 11 0.0 1.6 0.00 0.03 0.00 94 1014.9
20200229083015 11 0.0 1.6 0.00 0.03 0.00 93 1014.9
20200229082018 12 0.0 1.6 0.00 0.03 0.00 93 1014.8
20200229081017 12 0.0 3.2 0.00 0.03 0.00 93 1015.0
20200229080017 12 0.0 1.6 0.00 0.03 0.00 93 1015.1
20200229075017 12 0.0 0.0 0.00 0.03 0.00 94 1015.3
20200229074017 12 0.0 1.6 0.00 0.03 0.00 94 1015.3
20200229073017 12 0.0 3.2 0.00 0.03 0.00 94 1015.5
20200229072018 12 0.0 1.6 0.00 0.03 0.00 94 1015.4
20200229071017 12 0.0 1.6 0.00 0.03 0.00 92 1015.3
20200229070019 12 0.0 1.6 0.00 0.03 0.00 92 1015.2
20200229065015 13 0.0 1.6 0.00 0.03 0.03 92 1015.3
20200229064015 13 0.0 1.6 0.00 0.03 0.03 92 1015.3
20200229063016 13 0.0 1.6 0.00 0.03 0.03 92 1015.2
20200229062016 13 0.0 0.0 0.00 0.03 0.03 91 1015.2
20200229061016 13 0.0 0.0 0.00 0.03 0.03 91 1015.1
20200229060016 13 0.0 1.6 0.00 0.03 0.03 92 1015.0
20200229055015 13 157 1.6 3.2 0.00 0.03 0.03 93 1014.9
20200229054015 13 0.0 1.6 0.00 0.03 0.03 92 1014.9
20200229053016 13 0.0 0.0 0.00 0.03 0.03 91 1014.7
20200229052015 14 0.0 1.6 0.00 0.03 0.03 92 1014.7
20200229051016 14 157 1.6 3.2 0.00 0.03 0.03 92 1014.7
20200229050015 14 247 1.6 3.2 0.00 0.03 0.03 92 1014.9
20200229045017 15 0.0 1.6 0.00 0.03 0.03 93 1014.9
20200229044017 15 0.0 0.0 0.00 0.03 0.03 93 1015.0
20200229043018 15 0.0 0.0 0.00 0.03 0.03 92 1015.1
20200229042017 15 0.0 0.0 0.00 0.03 0.03 92 1015.2
20200229041017 15 0.0 1.6 0.00 0.03 0.03 92 1015.1
20200229040018 15 0.0 0.0 0.00 0.03 0.03 91 1015.3
20200229035017 15 270 1.6 3.2 0.00 0.03 0.03 91 1015.2
20200229033018 15 0.0 0.0 0.00 0.03 0.03 89 1014.9
20200229032017 15 0.0 0.0 0.00 0.03 0.03 88 1014.8
20200229031017 16 0.0 0.0 0.00 0.03 0.03 88 1014.7
20200229030017 16 0.0 0.0 0.00 0.03 0.03 87 1014.6
20200229025018 16 0.0 0.0 0.00 0.03 0.03 86 1014.5
20200229024017 17 0.0 0.0 0.00 0.03 0.03 85 1014.4
20200229023017 17 0.0 0.0 0.00 0.03 0.03 84 1014.4
20200229022017 18 0.0 0.0 0.00 0.03 0.03 82 1014.4
20200229021017 18 0.0 1.6 0.00 0.03 0.03 81 1014.3
20200229012017 22 0.0 0.0 0.00 0.03 0.03 70 1014.0
20200229011017 23 0.0 4.8 0.00 0.03 0.03 64 1014.0
20200229010017 23 270 1.6 3.2 0.00 0.03 0.03 59 1014.0
20200229005017 25 270 1.6 3.2 0.00 0.03 0.03 56 1013.9
20200229004017 25 247 3.2 9.7 0.00 0.03 0.03 53 1013.9
20200229003017 26 270 3.2 11.3 0.00 0.03 0.03 53 1013.8
20200229002017 26 247 3.2 8.0 0.00 0.03 0.03 55 1013.7
20200229001017 26 247 4.8 8.0 0.00 0.03 0.03 56 1013.7
20200229000017 26 247 6.4 12.9 0.00 0.03 0.03 52 1013.6
20200228235017 27 247 4.8 11.3 0.00 0.03 0.03 51 1013.5
20200228234017 27 247 4.8 12.9 0.00 0.03 0.03 51 1013.4
20200228233017 27 247 4.8 9.7 0.00 0.03 0.03 52 1013.5
20200228232017 28 225 4.8 12.9 0.00 0.03 0.03 53 1013.5
20200228231017 28 202 6.4 17.7 0.00 0.03 0.03 51 1013.5
20200228230017 28 225 6.4 16.1 0.00 0.03 0.03 53 1013.3
20200228225017 29 225 6.4 12.9 0.00 0.03 0.03 49 1013.3
20200228224016 30 247 4.8 11.3 0.00 0.03 0.03 49 1013.2
20200228223017 30 270 3.2 6.4 0.00 0.03 0.03 46 1013.1
20200228222017 30 292 1.6 6.4 0.00 0.03 0.03 48 1012.9
20200228221016 30 225 3.2 12.9 0.00 0.03 0.03 46 1013.0
20200228220017 30 247 3.2 4.8 0.00 0.03 0.03 48 1013.1
20200228215017 30 225 3.2 9.7 0.00 0.03 0.03 51 1013.1
20200228214017 30 247 1.6 6.4 0.00 0.03 0.03 50 1013.3
20200228213017 30 225 3.2 6.4 0.00 0.03 0.03 52 1013.3
20200228212016 30 247 3.2 6.4 0.00 0.03 0.03 50 1013.5
20200228211017 30 270 1.6 4.8 0.00 0.03 0.03 49 1013.6
20200228210017 30 247 3.2 6.4 0.00 0.03 0.03 51 1013.8
20200228205017 30 270 1.6 4.8 0.00 0.03 0.03 49 1013.9
20200228204017 30 292 1.6 4.8 0.00 0.03 0.03 51 1014.1
20200228203017 30 315 1.6 3.2 0.00 0.03 0.03 59 1014.2
20200228202016 29 315 1.6 4.8 0.00 0.03 0.03 52 1014.4
20200228201017 28 337 1.6 4.8 0.00 0.03 0.03 47 1014.6
20200228200017 28 270 1.6 6.4 0.00 0.03 0.03 52 1014.8
20200228195016 28 337 3.2 4.8 0.00 0.03 0.03 55 1015.0
20200228194016 28 315 1.6 4.8 0.00 0.03 0.03 56 1015.2
20200228193016 27 270 1.6 4.8 0.00 0.03 0.03 52 1015.6
20200228192017 27 315 1.6 4.8 0.00 0.03 0.03 54 1015.7
20200228191016 27 315 3.2 4.8 0.00 0.03 0.03 56 1015.9
20200228190016 27 315 3.2 6.4 0.00 0.03 0.03 57 1016.2
20200228185016 26 315 1.6 4.8 0.00 0.03 0.03 58 1016.2
20200228184016 26 292 1.6 6.4 0.00 0.03 0.03 58 1016.3
20200228183017 26 337 3.2 6.4 0.00 0.03 0.03 58 1016.3
20200228182017 26 270 3.2 6.4 0.00 0.03 0.03 64 1016.5
20200228181016 25 315 3.2 6.4 0.00 0.03 0.03 62 1016.8
20200228180016 25 315 1.6 4.8 0.00 0.03 0.03 62 1016.8
20200228175016 24 270 3.2 9.7 0.00 0.03 0.03 60 1016.9
20200228174017 24 315 1.6 6.4 0.00 0.03 0.03 61 1016.9
20200228173016 23 315 3.2 6.4 0.00 0.03 0.03 62 1016.9
20200228172016 23 292 1.6 4.8 0.00 0.03 0.03 63 1016.8
20200228171016 22 0 1.6 4.8 0.00 0.03 0.03 66 1016.8
20200228170016 22 247 1.6 4.8 0.00 0.03 0.03 66 1016.9
20200228165016 21 247 1.6 4.8 0.00 0.03 0.03 69 1016.8
20200228164016 21 315 1.6 4.8 0.00 0.03 0.03 70 1016.8
20200228163017 20 315 1.6 3.2 0.00 0.03 0.03 71 1016.8
20200228162017 19 292 3.2 6.4 0.00 0.03 0.03 75 1016.8
20200228161016 18 270 1.6 4.8 0.00 0.03 0.03 78 1016.6
20200228160016 17 270 1.6 4.8 0.00 0.03 0.03 86 1016.5
20200228155016 16 315 1.6 4.8 0.00 0.03 0.03 88 1016.4
20200228154016 15 315 1.6 3.2 0.00 0.03 0.03 95 1016.3
20200228153016 15 0.0 1.6 0.00 0.03 0.03 97 1016.3
20200228152016 14 292 1.6 3.2 0.00 0.03 0.03 97 1016.1
20200228151016 13 0.0 3.2 0.03 0.03 0.03 97 1016.0
20200228150016 12 0.0 1.6 0.03 0.03 0.03 97 1016.1
20200228145016 11 0.0 3.2 0.03 0.03 0.03 97 1016.1
20200228144016 11 0.0 3.2 0.03 0.03 0.03 97 1016.0
20200228143017 10 0.0 1.6 0.03 0.03 0.03 97 1015.8
20200228142016 9 0.0 3.2 0.03 0.03 0.03 97 1015.8
20200228141016 8 0.0 3.2 0.00 0.00 0.00 97 1015.7
20200228140016 8 247 1.6 3.2 0.00 0.00 0.00 97 1015.6
20200228135016 8 0.0 1.6 0.00 0.00 0.00 97 1015.4
20200228134016 8 0.0 1.6 0.00 0.00 0.00 96 1015.4
20200228133016 8 0.0 1.6 0.00 0.00 0.00 96 1015.2
20200228132016 7 0.0 0.0 0.00 0.00 0.00 96 1015.2
20200228131016 8 0.0 0.0 0.00 0.00 0.00 96 1015.1
20200228130016 8 0.0 0.0 0.00 0.00 0.00 96 1015.0
20200228125016 8 0.0 0.0 0.00 0.00 0.00 96 1014.7
20200228124016 8 0.0 0.0 0.00 0.00 0.00 96 1014.6
20200228123016 8 0.0 1.6 0.00 0.00 0.00 96 1014.6
20200228122016 8 0.0 1.6 0.00 0.00 0.00 96 1014.5
20200228121016 8 0.0 3.2 0.00 0.00 0.00 96 1014.4
20200228120015 8 0.0 1.6 0.00 0.00 0.00 96 1014.4
20200228115016 8 0.0 1.6 0.00 0.00 0.00 96 1014.5
20200228114016 8 0.0 1.6 0.00 0.00 0.00 96 1014.5
20200228113015 8 0.0 1.6 0.00 0.00 0.00 95 1014.4
20200228112016 8 0.0 0.0 0.00 0.00 0.00 95 1014.4
20200228111016 8 0.0 0.0 0.00 0.00 0.00 95 1014.6
20200228110015 8 0.0 0.0 0.00 0.00 0.00 95 1014.5